Weather History for Cody, WY

Change the Weather History Date:

Wednesday, March 27, 2013

  Actual Average Record
Temperature  
Mean Temperature 37 °F -  
Max Temperature 53 °F 52 °F 74 °F (1986)
Min Temperature 21 °F 29 °F -8 °F (1931)
Degree Days  
Heating Degree Days 28    
Moisture  
Dew Point 19 °F    
Average Humidity 44    
Maximum Humidity 69    
Minimum Humidity 26    
Precipitation  
Precipitation 0.00 in - - ()
Sea Level Pressure  
Sea Level Pressure 29.97 in    
Wind  
Wind Speed 5 mph (SW)    
Max Wind Speed 10 mph    
Max Gust Speed 16 mph    
Visibility 10 miles    
Events      
Averages and records for this station are not official NWS values.
T = Trace of Precipitation, MM = Missing Value Source: NWS Daily Summary

Daily Weather History Graph

Daily Weather History Graph

Search for Another Location

Airport:

Trip Planner

Search our weather history database for the weather conditions in past years. The results will help you decide how hot, cold, wet, or windy it might be!

Date:

Astronomy

Mar. 27, 2013 Rise Set
Actual Time 7:05 AM MDT 7:37 PM MDT
Civil Twilight 6:36 AM MDT 8:06 PM MDT
Nautical Twilight 6:01 AM MDT 8:41 PM MDT
Astronomical Twilight 5:26 AM MDT 9:17 PM MDT
Moon 8:28 PM MDT (3/27) 6:56 AM MDT (3/27)
Length of Visible Light 13h 30m
Length of Day
12h 32m
Full, 100% of the Moon is Illuminated
Mar 27
Full
Apr 2
Last Quarter
Apr 10
New
Apr 18
First Quarter
Apr 25
Full

Hourly Weather History & Observations

Time (MDT) Temp. Windchill Dew Point Humidity Pressure Visibility Wind Dir Wind Speed Gust Speed Precip Events Conditions
12:15 AM 26.6 °F 21.2 °F 12.2 °F 55% 29.96 in 10.0 mi South 4.6 mph - N/A   Clear
12:35 AM 26.6 °F 21.2 °F 12.2 °F 55% 29.96 in 10.0 mi South 4.6 mph - N/A   Clear
12:55 AM 28.4 °F 22.2 °F 12.2 °F 51% 29.96 in 10.0 mi South 5.8 mph - N/A   Clear
1:15 AM 32.0 °F 27.5 °F 15.8 °F 51% 29.97 in 10.0 mi SW 4.6 mph - N/A   Clear
1:35 AM 30.2 °F 25.4 °F 15.8 °F 55% 29.96 in 10.0 mi SSW 4.6 mph - N/A   Clear
1:55 AM 32.0 °F 26.4 °F 15.8 °F 51% 29.97 in 10.0 mi South 5.8 mph - N/A   Clear
2:15 AM 26.6 °F 19.1 °F 12.2 °F 55% 29.96 in 10.0 mi SSE 6.9 mph - N/A   Clear
2:35 AM 26.6 °F 21.2 °F 14.0 °F 59% 29.96 in 10.0 mi South 4.6 mph - N/A   Clear
2:55 AM 26.6 °F 20.0 °F 12.2 °F 55% 29.96 in 10.0 mi South 5.8 mph - N/A   Clear
3:15 AM 28.4 °F 21.2 °F 14.0 °F 55% 29.96 in 10.0 mi South 6.9 mph - N/A   Clear
3:35 AM 28.4 °F 22.2 °F 15.8 °F 59% 29.95 in 10.0 mi SSW 5.8 mph - N/A   Clear
3:55 AM 30.2 °F 23.4 °F 15.8 °F 55% 29.95 in 10.0 mi SSW 6.9 mph - N/A   Clear
4:15 AM 28.4 °F 22.2 °F 15.8 °F 59% 29.95 in 10.0 mi SSW 5.8 mph - N/A   Clear
4:35 AM 30.2 °F 25.4 °F 17.6 °F 60% 29.95 in 10.0 mi SSW 4.6 mph - N/A   Clear
4:55 AM 30.2 °F 26.7 °F 15.8 °F 55% 29.95 in 10.0 mi South 3.5 mph - N/A   Clear
5:15 AM 30.2 °F 22.6 °F 17.6 °F 60% 29.95 in 10.0 mi SW 8.1 mph - N/A   Clear
5:35 AM 23.0 °F - 12.2 °F 63% 29.96 in 10.0 mi Calm Calm - N/A   Clear
5:55 AM 24.8 °F - 15.8 °F 69% 29.97 in 10.0 mi Calm Calm - N/A   Clear
6:15 AM 24.8 °F - 15.8 °F 69% 29.97 in 10.0 mi Calm Calm - N/A   Clear
6:35 AM 21.2 °F - 12.2 °F 68% 29.97 in 10.0 mi Calm Calm - N/A   Clear
6:55 AM 24.8 °F - 15.8 °F 69% 29.98 in 10.0 mi Calm Calm - N/A   Clear
7:15 AM 26.6 °F - 15.8 °F 64% 29.98 in 10.0 mi Calm Calm - N/A   Clear
7:35 AM 26.6 °F 22.6 °F 14.0 °F 59% 29.98 in 10.0 mi SSE 3.5 mph - N/A   Clear
7:55 AM 28.4 °F 22.2 °F 19.4 °F 69% 29.98 in 10.0 mi SSE 5.8 mph - N/A   Clear
8:15 AM 30.2 °F - 17.6 °F 60% 29.98 in 10.0 mi Calm Calm - N/A   Clear
8:35 AM 32.0 °F - 17.6 °F 55% 29.99 in 10.0 mi Calm Calm - N/A   Clear
9:15 AM 37.4 °F 34.9 °F 19.4 °F 48% 29.99 in 10.0 mi WSW 3.5 mph - N/A   Clear
9:35 AM 41.0 °F 39.0 °F 21.2 °F 45% 29.99 in 10.0 mi SW 3.5 mph - N/A   Clear
9:55 AM 42.8 °F 39.3 °F 21.2 °F 42% 29.99 in 10.0 mi WNW 5.8 mph - N/A   Clear
10:15 AM 44.6 °F 42.2 °F 21.2 °F 39% 29.99 in 10.0 mi North 4.6 mph - N/A   Clear
10:35 AM 44.6 °F 40.7 °F 19.4 °F 37% 29.99 in 10.0 mi NNW 6.9 mph - N/A   Clear
10:55 AM 46.4 °F 45.2 °F 19.4 °F 34% 29.99 in 10.0 mi North 3.5 mph - N/A   Clear
11:15 AM 48.2 °F - 21.2 °F 34% 29.99 in 10.0 mi North 3.5 mph - N/A   Clear
11:35 AM 48.2 °F - 19.4 °F 32% 29.98 in 8.0 mi NNW 4.6 mph - N/A   Clear
11:55 AM 48.2 °F - 19.4 °F 32% 29.98 in 10.0 mi NNW 8.1 mph - N/A   Clear
12:15 PM 51.8 °F - 19.4 °F 28% 29.97 in 10.0 mi SSW 8.1 mph - N/A   Clear
12:35 PM 51.8 °F - 17.6 °F 26% 29.97 in 10.0 mi SSW 8.1 mph - N/A   Clear
1:15 PM 53.6 °F - 19.4 °F 26% 29.96 in 10.0 mi South 5.8 mph 16.1 mph N/A   Clear
1:35 PM 53.6 °F - 19.4 °F 26% 29.96 in 10.0 mi South 8.1 mph - N/A   Partly Cloudy
1:55 PM 53.6 °F - 19.4 °F 26% 29.95 in 10.0 mi West 4.6 mph - N/A   Scattered Clouds
2:15 PM 53.6 °F - 19.4 °F 26% 29.94 in 9.0 mi NNE 3.5 mph - N/A   Overcast
2:35 PM 53.6 °F - 19.4 °F 26% 29.94 in 10.0 mi North 6.9 mph - N/A   Overcast
2:55 PM 53.6 °F - 19.4 °F 26% 29.94 in 10.0 mi North 10.4 mph - N/A   Overcast
3:15 PM 51.8 °F - 19.4 °F 28% 29.93 in 10.0 mi North 10.4 mph - N/A   Overcast
3:35 PM 51.8 °F - 21.2 °F 30% 29.94 in 10.0 mi North 8.1 mph - N/A   Overcast
3:55 PM 51.8 °F - 21.2 °F 30% 29.94 in 10.0 mi North 8.1 mph - N/A   Overcast
4:15 PM 51.8 °F - 21.2 °F 30% 29.94 in 10.0 mi North 4.6 mph - N/A   Overcast
4:35 PM 51.8 °F - 21.2 °F 30% 29.94 in 10.0 mi NNE 5.8 mph - N/A   Overcast
5:15 PM 51.8 °F - 21.2 °F 30% 29.94 in 10.0 mi NNE 3.5 mph - N/A   Overcast
5:35 PM 51.8 °F - 21.2 °F 30% 29.94 in 10.0 mi East 9.2 mph - N/A   Overcast
5:55 PM 51.8 °F - 21.2 °F 30% 29.94 in 10.0 mi East 8.1 mph - N/A   Mostly Cloudy
6:15 PM 51.8 °F - 21.2 °F 30% 29.95 in 6.0 mi SE 4.6 mph - N/A   Mostly Cloudy
6:35 PM 51.8 °F - 21.2 °F 30% 29.95 in 10.0 mi ESE 4.6 mph - N/A   Overcast
6:55 PM 51.8 °F - 21.2 °F 30% 29.95 in 10.0 mi East 4.6 mph - N/A   Overcast
7:35 PM 50.0 °F - 21.2 °F 32% 29.97 in 10.0 mi Calm Calm - N/A   Overcast
7:55 PM 50.0 °F - 23.0 °F 35% 29.97 in 10.0 mi West 8.1 mph - N/A   Overcast
8:15 PM 50.0 °F - 23.0 °F 35% 29.98 in 10.0 mi West 9.2 mph - N/A   Overcast
8:35 PM 48.2 °F - 21.2 °F 34% 29.98 in 10.0 mi NW 4.6 mph - N/A   Overcast
8:55 PM 48.2 °F - 23.0 °F 37% 29.99 in 10.0 mi NW 4.6 mph - N/A   Mostly Cloudy
9:15 PM 46.4 °F - 23.0 °F 40% 30.00 in 10.0 mi Calm Calm - N/A   Overcast
9:35 PM 46.4 °F 41.5 °F 24.8 °F 43% 30.00 in 10.0 mi SW 10.4 mph - N/A   Mostly Cloudy
9:55 PM 46.4 °F 43.5 °F 24.8 °F 43% 30.01 in 10.0 mi WNW 5.8 mph 16.1 mph N/A   Mostly Cloudy
10:15 PM 46.4 °F 41.5 °F 24.8 °F 43% 30.01 in 10.0 mi WSW 10.4 mph 16.1 mph N/A   Overcast
10:35 PM 46.4 °F 44.3 °F 24.8 °F 43% 30.02 in 10.0 mi WSW 4.6 mph - N/A   Overcast
10:55 PM 44.6 °F 39.7 °F 24.8 °F 46% 30.01 in 10.0 mi SW 9.2 mph - N/A   Overcast
11:15 PM 46.4 °F 41.9 °F 24.8 °F 43% 30.01 in 10.0 mi SW 9.2 mph 16.1 mph N/A   Overcast
11:55 PM 42.8 °F 39.3 °F 24.8 °F 49% 30.02 in 10.0 mi SW 5.8 mph - N/A   Partly Cloudy